Location: Newark
(40.8181°N, 73.9275°W)
Time: 02:11:19
(UTC+00:00)

ISS - Visible Passes

Search period start: 16 November 2019 00:00
Search period end: 26 November 2019 00:00
Orbit: 412 x 421 km, 51.6° (Epoch: 16 November)

Date Brightness Start Highest point End Pass type
(mag) Time Alt. Az. Time Alt. Az. Time Alt. Az.
19 Nov -1.3 22:53:35 10° SE 22:53:54 11° SE 22:53:54 11° SE visible
20 Nov -1.9 23:39:09 10° SW 23:40:49 26° SSW 23:40:49 26° SSW visible
21 Nov -2.8 22:51:06 10° SSW 22:54:05 31° SE 22:54:42 28° ESE visible
22 Nov -1.9 22:03:28 10° S 22:05:48 18° SE 22:08:09 10° E visible
22 Nov -2.4 23:38:59 10° WSW 23:41:25 39° W 23:41:25 39° W visible
23 Nov -3.8 22:50:26 10° SW 22:53:47 89° NW 22:55:07 34° NE visible
24 Nov -3.4 22:02:07 10° SW 22:05:21 51° SE 22:08:38 10° ENE visible
24 Nov -1.7 23:39:24 10° W 23:41:39 24° NW 23:41:39 24° NW visible
25 Nov -2.6 22:50:32 10° W 22:53:39 36° NNW 22:55:12 23° NNE visible
